Woodward, OK

10:46 AM CDT on August 28, 2016 (GMT -0500)
West Woodward

Weather History for KWWR - May, 2013

Change the Weather History Date:

Sunday, May 19, 2013

  Actual Average (KGAG) Record (KGAG)
Temperature  
Mean Temperature 76 °F -  
Max Temperature 89 °F 80 °F 102 °F (2004)
Min Temperature 62 °F 54 °F 35 °F (1971)
Cooling Degree Days 10    
Growing Degree Days 26 (Base 50)    
Moisture  
Dew Point 53 °F    
Average Humidity 53    
Maximum Humidity 88    
Minimum Humidity 17    
Precipitation  
Precipitation 0.00 in - - ()
Sea Level Pressure  
Sea Level Pressure 29.68 in    
Wind  
Wind Speed 11 mph (North)    
Max Wind Speed 22 mph    
Max Gust Speed 31 mph    
Visibility 10 miles    
Events Thunderstorm    
Averages and records for this station are not official NWS values.
T = Trace of Precipitation, MM = Missing Value Source: NWS Daily Summary

Daily Weather History Graph

Daily Weather History Graph

Search for Another Location

Airport or City:

Trip Planner

Search our weather history database for the weather conditions in past years. The results will help you decide how hot, cold, wet, or windy it might be!

Date:

Astronomy

May. 19, 2013 Rise Set
Actual Time 6:28 AM CDT 8:41 PM CDT
Civil Twilight 5:59 AM CDT 9:10 PM CDT
Nautical Twilight 5:23 AM CDT 9:46 PM CDT
Astronomical Twilight 4:44 AM CDT 10:25 PM CDT
Moon 2:56 PM CDT (5/19) 2:42 AM CDT (5/19)
Length of Visible Light 15h 11m
Length of Day
14h 13m
Waxing Gibbous, 65% of the Moon is Illuminated
May 19
Waxing Gibbous
May 24
Full
May 31
Last Quarter
Jun 8
New
Jun 16
First Quarter

Hourly Weather History & Observations

Time (CDT) Temp. Heat Index Dew Point Humidity Pressure Visibility Wind Dir Wind Speed Gust Speed Precip Events Conditions
12:15 AM 69.8 °F - 55.4 °F 60% 29.71 in 10.0 mi SE 16.1 mph - N/A   Mostly Cloudy
12:35 AM 68.0 °F - 57.2 °F 68% 29.71 in 10.0 mi ESE 19.6 mph 24.2 mph N/A Thunderstorm Scattered Clouds
12:55 AM 68.0 °F - 55.4 °F 64% 29.70 in 10.0 mi SE 16.1 mph 20.7 mph N/A Thunderstorm Scattered Clouds
1:15 AM 66.2 °F - 55.4 °F 68% 29.70 in 10.0 mi ESE 8.1 mph - N/A   Scattered Clouds
1:35 AM 68.0 °F - 55.4 °F 64% 29.69 in 10.0 mi SE 5.8 mph - N/A   Scattered Clouds
1:55 AM 69.8 °F - 53.6 °F 56% 29.70 in 10.0 mi East 4.6 mph - N/A   Mostly Cloudy
2:15 AM 68.0 °F - 57.2 °F 68% 29.71 in 10.0 mi Calm Calm - N/A   Mostly Cloudy
2:35 AM 66.2 °F - 55.4 °F 68% 29.71 in 10.0 mi SE 4.6 mph - N/A   Mostly Cloudy
2:55 AM 69.8 °F - 55.4 °F 60% 29.70 in 10.0 mi ESE 9.2 mph - N/A   Mostly Cloudy
3:15 AM 68.0 °F - 57.2 °F 68% 29.69 in 10.0 mi ESE 12.7 mph 18.4 mph N/A   Scattered Clouds
3:35 AM 68.0 °F - 59.0 °F 73% 29.70 in 10.0 mi ESE 12.7 mph - N/A   Scattered Clouds
3:55 AM 68.0 °F - 59.0 °F 73% 29.69 in 10.0 mi East 11.5 mph 18.4 mph N/A   Mostly Cloudy
4:15 AM 68.0 °F - 59.0 °F 73% 29.69 in 10.0 mi East 10.4 mph 20.7 mph N/A   Mostly Cloudy
4:35 AM 68.0 °F - 59.0 °F 73% 29.71 in 10.0 mi NE 5.8 mph - N/A   Mostly Cloudy
4:55 AM 68.0 °F - 59.0 °F 73% 29.72 in 10.0 mi ENE 15.0 mph - N/A   Overcast
5:15 AM 68.0 °F - 59.0 °F 73% 29.70 in 10.0 mi ENE 11.5 mph - N/A   Mostly Cloudy
5:35 AM 66.2 °F - 59.0 °F 78% 29.70 in 10.0 mi ENE 13.8 mph - N/A   Mostly Cloudy
5:55 AM 64.4 °F - 59.0 °F 83% 29.70 in 10.0 mi ENE 10.4 mph - N/A   Scattered Clouds
6:15 AM 62.6 °F - 59.0 °F 88% 29.71 in 10.0 mi ENE 11.5 mph - N/A   Scattered Clouds
6:35 AM 62.6 °F - 57.2 °F 82% 29.69 in 10.0 mi East 13.8 mph - N/A   Scattered Clouds
6:55 AM 62.6 °F - 59.0 °F 88% 29.71 in 10.0 mi NE 8.1 mph - N/A   Clear
7:15 AM 62.6 °F - 59.0 °F 88% 29.70 in 10.0 mi East 11.5 mph - N/A   Scattered Clouds
7:35 AM 64.4 °F - 59.0 °F 83% 29.71 in 10.0 mi East 12.7 mph - N/A   Scattered Clouds
7:55 AM 64.4 °F - 59.0 °F 83% 29.71 in 10.0 mi East 10.4 mph - N/A   Mostly Cloudy
8:15 AM 64.4 °F - 59.0 °F 83% 29.71 in 10.0 mi East 9.2 mph - N/A   Overcast
8:35 AM 68.0 °F - 60.8 °F 78% 29.69 in 10.0 mi East 13.8 mph - N/A   Mostly Cloudy
8:55 AM 68.0 °F - 60.8 °F 78% 29.68 in 10.0 mi East 16.1 mph - N/A   Scattered Clouds
9:15 AM 69.8 °F - 60.8 °F 73% 29.68 in 10.0 mi ESE 13.8 mph - N/A   Clear
9:35 AM 69.8 °F - 62.6 °F 78% 29.67 in 10.0 mi ESE 15.0 mph - N/A   Clear
9:55 AM 71.6 °F - 62.6 °F 73% 29.67 in 10.0 mi ESE 12.7 mph 18.4 mph N/A   Clear
10:15 AM 73.4 °F - 62.6 °F 69% 29.67 in 10.0 mi SE 12.7 mph - N/A   Clear
10:35 AM 73.4 °F - 62.6 °F 69% 29.68 in 10.0 mi South 10.4 mph - N/A   Scattered Clouds
10:55 AM 75.2 °F - 62.6 °F 65% 29.68 in 10.0 mi SSW 9.2 mph - N/A   Scattered Clouds
11:15 AM 77.0 °F - 62.6 °F 61% 29.68 in 10.0 mi SW 10.4 mph - N/A   Mostly Cloudy
11:35 AM 78.8 °F - 62.6 °F 57% 29.68 in 10.0 mi West 10.4 mph - N/A   Scattered Clouds
11:55 AM 78.8 °F - 62.6 °F 57% 29.67 in 10.0 mi WSW 6.9 mph - N/A   Scattered Clouds
12:15 PM 80.6 °F 81.8 °F 62.6 °F 54% 29.67 in 10.0 mi WSW 8.1 mph - N/A   Scattered Clouds
12:35 PM 80.6 °F 81.8 °F 62.6 °F 54% 29.67 in 10.0 mi West 10.4 mph - N/A   Clear
12:55 PM 82.4 °F 83.4 °F 62.6 °F 51% 29.67 in 10.0 mi West 12.7 mph - N/A   Scattered Clouds
1:15 PM 82.4 °F 82.9 °F 60.8 °F 48% 29.66 in 10.0 mi West 10.4 mph 18.4 mph N/A   Scattered Clouds
1:35 PM 84.2 °F 83.5 °F 57.2 °F 40% 29.66 in 10.0 mi West 11.5 mph 17.3 mph N/A   Scattered Clouds
1:55 PM 84.2 °F - 50.0 °F 30% 29.66 in 10.0 mi West 11.5 mph 25.3 mph N/A   Clear
2:15 PM 86.0 °F - 48.2 °F 27% 29.65 in 10.0 mi WSW 11.5 mph - N/A   Clear
2:35 PM 87.8 °F - 48.2 °F 25% 29.65 in 10.0 mi WSW 5.8 mph 17.3 mph N/A   Clear
2:55 PM 86.0 °F - 46.4 °F 25% 29.64 in 10.0 mi West 6.9 mph 17.3 mph N/A   Scattered Clouds
3:15 PM 86.0 °F - 48.2 °F 27% 29.64 in 10.0 mi WSW 13.8 mph 19.6 mph N/A   Mostly Cloudy
3:35 PM 87.8 °F - 44.6 °F 22% 29.63 in 10.0 mi WSW 16.1 mph 24.2 mph N/A   Scattered Clouds
3:55 PM 89.6 °F - 39.2 °F 17% 29.63 in 10.0 mi SW 17.3 mph 29.9 mph N/A   Scattered Clouds
4:15 PM 86.0 °F - 42.8 °F 22% 29.63 in 10.0 mi West 13.8 mph 31.1 mph N/A   Scattered Clouds
4:35 PM 86.0 °F - 46.4 °F 25% 29.63 in 10.0 mi WSW 18.4 mph 25.3 mph N/A   Mostly Cloudy
4:55 PM 86.0 °F - 46.4 °F 25% 29.62 in 10.0 mi WNW 13.8 mph 21.9 mph N/A   Scattered Clouds
5:15 PM 86.0 °F - 44.6 °F 23% 29.62 in 10.0 mi WNW 11.5 mph 16.1 mph N/A   Scattered Clouds
5:35 PM 87.8 °F - 44.6 °F 22% 29.63 in 10.0 mi West 13.8 mph 20.7 mph N/A   Scattered Clouds
5:55 PM 87.8 °F - 41.0 °F 19% 29.64 in 10.0 mi West 17.3 mph 24.2 mph N/A   Scattered Clouds
6:15 PM 86.0 °F - 42.8 °F 22% 29.64 in 10.0 mi West 12.7 mph 20.7 mph N/A   Scattered Clouds
6:35 PM 82.4 °F - 41.0 °F 23% 29.65 in 10.0 mi West 21.9 mph 29.9 mph N/A   Clear
6:55 PM 82.4 °F - 35.6 °F 19% 29.65 in 10.0 mi WNW 15.0 mph 24.2 mph N/A   Clear
7:15 PM 82.4 °F - 37.4 °F 20% 29.66 in 10.0 mi NW 9.2 mph - N/A   Clear
7:35 PM 80.6 °F - 41.0 °F 24% 29.67 in 10.0 mi NW 5.8 mph - N/A   Clear
7:55 PM 78.8 °F - 42.8 °F 28% 29.67 in 10.0 mi NW 4.6 mph - N/A   Clear
8:15 PM 77.0 °F - 42.8 °F 29% 29.68 in 10.0 mi NW 3.5 mph - N/A   Clear
8:55 PM 73.4 °F - 39.2 °F 29% 29.68 in 10.0 mi North 4.6 mph - N/A   Clear
9:15 PM 73.4 °F - 39.2 °F 29% 29.69 in 10.0 mi NNW 3.5 mph - N/A   Clear
9:35 PM 71.6 °F - 41.0 °F 33% 29.69 in 10.0 mi NNW 5.8 mph - N/A   Clear
9:55 PM 68.0 °F - 42.8 °F 40% 29.70 in 10.0 mi NNW 4.6 mph - N/A   Clear
10:15 PM 68.0 °F - 44.6 °F 43% 29.72 in 10.0 mi NW 10.4 mph - N/A   Clear
10:35 PM 69.8 °F - 42.8 °F 38% 29.73 in 10.0 mi North 11.5 mph - N/A   Clear
10:55 PM 68.0 °F - 44.6 °F 43% 29.75 in 10.0 mi North 8.1 mph - N/A   Clear
11:15 PM 64.4 °F - 48.2 °F 56% 29.74 in 10.0 mi North 8.1 mph - N/A   Clear
11:35 PM 64.4 °F - 50.0 °F 59% 29.74 in 10.0 mi NNE 9.2 mph - N/A   Clear
11:55 PM 64.4 °F - 51.8 °F 64% 29.75 in 10.0 mi ENE 6.9 mph - N/A   Clear